[[{"header":{"parameterUnit":"m.s-1","parameterCategory":1,"la1":30.2991,"la2":30.254,"lo1":-89.0895,"lo2":-89.0444,"dy":0.0017,"dx":0.0017,"nx":28,"ny":28,"refTime":"2025-04-10T09:00:00:Z","depth":0,"parameterNumber":2,"parameterNumberName":"U-component_of_WINDS"},"data":[0,0,0,0,0,0,0,0,0,0,0,0,0,0,0,0,0,0,0,0,0,0,0,0,0,0,0,0,0,0,0,0,0,0,0,0,0,0,0,0,0,0,0,0,0,0,0,0,0,0,0,0,0,0,0,0,0,0,1.0667,1.0667,0,1.0718,1.0719,1.0719,1.0756,1.0756,1.0756,1.0757,1.0806,1.0807,1.0808,0,0,0,0,0,0,0,0,0,0,0,0,0,1.0598,1.0599,1.0667,1.0667,1.0668,1.0718,1.0719,1.072,1.0756,1.0756,1.0756,1.0757,1.0806,1.0807,1.0808,0,0,0,0,0,0,0,0,0,0,0,0,0,1.0636,1.0599,1.0667,1.0692,1.0695,1.0718,1.0719,1.072,1.0756,1.0756,1.0756,1.0757,1.0805,1.0807,1.0808,1.0809,0,0,1.0813,1.0814,0,0,0,0,0,0,0,0,1.0634,1.0639,1.0688,1.069,1.0694,1.0731,1.0713,1.075,1.0755,1.0732,1.0757,1.0757,1.0781,1.0784,1.0793,1.0811,1.0814,1.0813,1.0814,1.0815,1.0815,0,0,0,0,0,0,0,1.0631,1.0637,1.0687,1.0688,1.0692,1.07,1.0706,1.072,1.0753,1.0734,1.0737,1.0743,1.0782,1.0791,1.0794,1.0814,1.0813,1.0815,1.0816,1.0816,1.0837,1.0837,0,0,0,0,0,0,1.0625,1.0634,1.0685,1.0689,1.0664,1.0701,1.0708,1.0719,1.0753,1.0759,1.0743,1.0745,1.0788,1.0792,1.0796,1.08,1.0815,1.0816,1.0817,1.0838,1.0837,1.0837,0,0,0,0,0,0,1.0623,1.0629,1.0683,1.0662,1.067,1.0702,1.0714,1.0719,1.0728,1.0759,1.0765,1.0746,1.0789,1.0794,1.0806,1.0802,1.0817,1.0818,1.0838,1.0838,1.0837,1.0807,0,0,0,0,0,0,1.0621,1.0628,1.0629,1.0662,1.0671,1.0693,1.0713,1.072,1.0731,1.0734,1.0764,1.0769,1.0789,1.0804,1.0808,1.0804,1.082,1.0839,1.0838,1.0837,1.0808,1.0805,1.0802,0,0,0,0,0,1.0619,1.0618,1.0629,1.0635,1.0673,1.0693,1.0698,1.0722,1.0731,1.0732,1.0752,1.0768,1.0802,1.0804,1.0809,1.0806,1.0839,1.0838,1.0837,1.0809,1.0806,1.0802,0,0,0,0,0,0,1.0582,1.0622,1.0635,1.0645,1.0665,1.0699,1.07,1.0717,1.0734,1.0736,1.0765,1.0771,1.078,1.0795,1.0797,1.081,1.0823,1.0823,1.08,1.0796,1.0794,1.0789,1.0821,0,0,0,0,0,1.0575,1.0589,1.0623,1.0628,1.0638,1.0668,1.0677,1.0694,1.0716,1.0724,1.0745,1.0765,1.078,1.0789,1.0805,1.0811,1.0818,1.0811,1.0809,1.0806,1.0805,1.081,1.0808,1.0834,1.0834,1.0834,0,0,1.0561,1.0585,1.0591,1.0622,1.0639,1.0652,1.0674,1.0687,1.0696,1.0726,1.0739,1.0755,1.0779,1.0788,1.0794,1.0801,1.08,1.0805,1.0803,1.0804,1.0809,1.0807,1.0804,1.0834,1.0834,1.0834,0,0,1.0541,1.0561,1.0568,1.0586,1.0613,1.0633,1.0635,1.0666,1.0678,1.0692,1.0715,1.0727,1.0752,1.0768,1.078,1.0769,1.0784,1.0773,1.0758,1.0762,1.076,1.0759,1.0754,1.0753,1.0773,1.0773,1.0773,0,1.052,1.0541,1.0569,1.0581,1.0593,1.0623,1.063,1.0645,1.0675,1.0683,1.0692,1.0725,1.0743,1.0757,1.0754,1.0763,1.0765,1.0769,1.0759,1.0757,1.0756,1.0752,1.0751,1.0771,1.0771,1.0771,1.0772,0,1.0513,1.0527,1.053,1.056,1.0573,1.0582,1.0611,1.0621,1.0638,1.0657,1.0671,1.0694,1.0716,1.072,1.0736,1.0737,1.0741,1.0753,1.0767,1.0751,1.0748,1.0747,1.0769,1.0769,1.077,1.077,0,0,1.047,1.0517,1.0517,1.0532,1.0565,1.0576,1.0587,1.0609,1.0617,1.0638,1.0647,1.0669,1.0681,1.0695,1.0713,1.0717,1.0707,1.0729,1.073,1.0724,1.0709,1.0699,1.0696,1.0718,1.0718,1.0718,1.0707,0,1.0455,1.0476,1.0503,1.0515,1.0529,1.0558,1.0568,1.0589,1.0607,1.0621,1.0642,1.0657,1.0672,1.068,1.0686,1.0707,1.0704,1.0708,1.0726,1.0726,1.0718,1.0695,1.0684,1.0672,1.0706,1.0706,1.0706,0,1.0439,1.046,1.0474,1.0507,1.0514,1.0522,1.0545,1.0558,1.0583,1.0597,1.0612,1.0632,1.0645,1.0658,1.0676,1.0678,1.0687,1.0699,1.0699,1.0701,1.0714,1.0695,1.0669,1.0667,1.0704,1.0704,1.0704,0,1.0406,1.0437,1.045,1.0461,1.05,1.0505,1.0522,1.0547,1.0559,1.058,1.0588,1.0609,1.062,1.0635,1.066,1.0668,1.0676,1.0691,1.0686,1.0686,1.0685,1.0685,1.0659,1.0693,1.0693,1.0693,1.0693,0,1.0385,1.0392,1.0435,1.0443,1.0452,1.0483,1.0491,1.051,1.0533,1.0545,1.0571,1.0581,1.0615,1.0629,1.0649,1.066,1.0665,1.0676,1.0681,1.0673,1.0671,1.0678,1.0679,1.0693,1.0693,1.0693,1.0693,0,1.0348,1.0377,1.0393,1.043,1.0439,1.0444,1.0476,1.0484,1.0505,1.052,1.0525,1.0557,1.0576,1.0603,1.0629,1.0643,1.0651,1.066,1.0642,1.0645,1.0639,1.0639,1.0617,1.0615,1.065,1.065,1.065,0,1.0332,1.0339,1.0377,1.0388,1.0404,1.042,1.0433,1.0464,1.0476,1.0506,1.0511,1.0532,1.055,1.0578,1.0603,1.0623,1.0632,1.0623,1.0635,1.0628,1.0631,1.063,1.0631,1.062,1.0619,1.0619,1.0618,0,1.0301,1.0316,1.0334,1.0358,1.0374,1.0393,1.0414,1.0421,1.0457,1.047,1.049,1.0504,1.0532,1.0551,1.0576,1.0592,1.0611,1.0615,1.0615,1.0606,1.0596,1.0601,1.0634,1.0615,1.0615,1.0615,1.0615,1.0616,1.0274,1.0282,1.031,1.033,1.035,1.0369,1.038,1.0403,1.042,1.0446,1.0464,1.0482,1.0508,1.0543,1.0559,1.0574,1.0582,1.0582,1.0582,1.0581,1.0578,1.0595,1.0579,1.0579,1.0579,1.0579,1.0579,0,1.0244,1.0264,1.0283,1.0312,1.0328,1.0347,1.0372,1.0383,1.04,1.0423,1.0441,1.0464,1.0484,1.0513,1.0535,1.0541,1.0551,1.0546,1.0545,1.0549,1.057,1.0567,1.0538,1.0538,1.0538,1.0538,1.0538,1.0538,1.023,1.0244,1.0262,1.0286,1.0307,1.0326,1.0339,1.0357,1.0376,1.0401,1.0419,1.0438,1.0463,1.0488,1.0507,1.0515,1.0522,1.0514,1.0525,1.0543,1.0547,1.0551,1.0548,1.0516,1.0516,1.0502,1.0502,1.0502]},{"header":{"parameterUnit":"m.s-1","parameterCategory":1,"la1":30.2991,"la2":30.254,"lo1":-89.0895,"lo2":-89.0444,"dy":0.0017,"dx":0.0017,"nx":28,"ny":28,"refTime":"2025-04-10T09:00:00:Z","depth":0,"parameterNumber":3,"parameterNumberName":"V-component_of_WINDS"},"data":[0,0,0,0,0,0,0,0,0,0,0,0,0,0,0,0,0,0,0,0,0,0,0,0,0,0,0,0,0,0,0,0,0,0,0,0,0,0,0,0,0,0,0,0,0,0,0,0,0,0,0,0,0,0,0,0,0,0,-6.8467,-6.8468,0,-6.8555,-6.8556,-6.8557,-6.8432,-6.8428,-6.8423,-6.8419,-6.8506,-6.8512,-6.8519,0,0,0,0,0,0,0,0,0,0,0,0,0,-6.8189,-6.8194,-6.8467,-6.8468,-6.8469,-6.8555,-6.8556,-6.8557,-6.8433,-6.8428,-6.8422,-6.8417,-6.8504,-6.8512,-6.8519,0,0,0,0,0,0,0,0,0,0,0,0,0,-6.8296,-6.8196,-6.8467,-6.8418,-6.8414,-6.8555,-6.8556,-6.8558,-6.8434,-6.8427,-6.8421,-6.8415,-6.8501,-6.8511,-6.852,-6.8712,0,0,-6.855,-6.8554,0,0,0,0,0,0,0,0,-6.829,-6.8307,-6.8424,-6.8421,-6.8418,-6.8476,-6.849,-6.8609,-6.8436,-6.8427,-6.8419,-6.8411,-6.8501,-6.851,-6.8541,-6.8716,-6.872,-6.8551,-6.8556,-6.8561,-6.8563,0,0,0,0,0,0,0,-6.8283,-6.8302,-6.8502,-6.8426,-6.8422,-6.839,-6.8398,-6.8512,-6.85,-6.8427,-6.8418,-6.843,-6.8498,-6.8532,-6.8542,-6.8721,-6.855,-6.8559,-6.8565,-6.8569,-6.9058,-6.9065,0,0,0,0,0,0,-6.8282,-6.8297,-6.8499,-6.8504,-6.8337,-6.8401,-6.841,-6.8464,-6.8498,-6.8497,-6.8436,-6.8424,-6.8519,-6.8531,-6.8545,-6.8773,-6.8561,-6.857,-6.8575,-6.9051,-6.906,-6.9068,0,0,0,0,0,0,-6.8277,-6.8301,-6.8495,-6.8398,-6.8421,-6.8412,-6.8474,-6.8469,-6.8503,-6.8505,-6.8502,-6.8473,-6.8514,-6.8531,-6.8672,-6.8774,-6.8574,-6.8583,-6.9043,-6.9054,-6.9064,-6.923,0,0,0,0,0,0,-6.8269,-6.83,-6.8374,-6.8401,-6.8426,-6.8623,-6.8481,-6.8476,-6.8521,-6.8506,-6.8539,-6.8538,-6.8511,-6.8658,-6.8682,-6.8784,-6.859,-6.9034,-6.9048,-6.9061,-6.9215,-6.9245,-6.9271,0,0,0,0,0,-6.826,-6.8416,-6.8378,-6.8403,-6.8518,-6.8629,-6.8643,-6.8609,-6.8529,-6.8603,-6.8604,-6.8537,-6.8759,-6.8674,-6.8699,-6.8806,-6.9027,-6.9044,-6.906,-6.9203,-6.9239,-6.927,0,0,0,0,0,0,-6.84,-6.8419,-6.8377,-6.8547,-6.8587,-6.8607,-6.8699,-6.8648,-6.8711,-6.8695,-6.8648,-6.8657,-6.8808,-6.882,-6.8725,-6.8993,-6.888,-6.8902,-6.898,-6.9015,-6.9042,-6.9036,-6.8598,0,0,0,0,0,-6.8451,-6.854,-6.8551,-6.87,-6.8722,-6.8708,-6.8754,-6.8724,-6.8764,-6.878,-6.8791,-6.8831,-6.891,-6.8962,-6.9034,-6.9216,-6.9221,-6.9301,-6.9329,-6.9352,-6.9372,-6.9469,-6.9505,-6.9121,-6.9121,-6.9121,0,0,-6.8556,-6.8578,-6.8636,-6.8728,-6.8756,-6.8849,-6.8723,-6.8826,-6.8894,-6.8795,-6.8929,-6.8939,-6.898,-6.9143,-6.9214,-6.9158,-6.9479,-6.9373,-6.9391,-6.9398,-6.949,-6.9526,-6.9558,-6.9132,-6.913,-6.9129,0,0,-6.8797,-6.8822,-6.8949,-6.898,-6.9024,-6.9013,-6.9044,-6.9072,-6.9075,-6.9209,-6.9137,-6.9217,-6.9353,-6.9386,-6.942,-6.9673,-6.9615,-6.9698,-6.9843,-6.9938,-6.9969,-6.9995,-7.0087,-7.012,-6.9718,-6.9718,-6.9718,0,-6.8922,-6.906,-6.9021,-6.913,-6.9172,-6.9088,-6.9217,-6.9248,-6.9313,-6.9344,-6.9279,-6.9449,-6.9471,-6.964,-6.9702,-6.9732,-6.9766,-6.9695,-6.9968,-6.9994,-7.0018,-7.0105,-7.0139,-6.9728,-6.9727,-6.9726,-6.9725,0,-6.9213,-6.9309,-6.9407,-6.9474,-6.9527,-6.9645,-6.9623,-6.9681,-6.9647,-6.9643,-6.978,-6.9803,-6.9879,-6.9917,-6.9883,-7.0082,-7.0045,-6.9975,-6.986,-7.0066,-7.0146,-7.0179,-6.9742,-6.9739,-6.9736,-6.9733,0,0,-6.9545,-6.9589,-6.9625,-6.9655,-6.9697,-6.9771,-6.9884,-6.996,-7.0012,-7.0059,-7.0153,-7.0271,-7.0206,-7.0246,-7.0215,-7.0299,-7.0499,-7.0218,-7.0218,-7.0271,-7.072,-7.0774,-7.0813,-7.046,-7.0466,-7.0471,-7.0717,0,-6.9786,-6.9985,-6.9952,-7.0144,-7.0233,-7.0155,-7.0254,-7.029,-7.0289,-7.0364,-7.0361,-7.0446,-7.0354,-7.0378,-7.0457,-7.0458,-7.0589,-7.044,-7.0548,-7.0552,-7.0541,-7.0855,-7.0912,-7.1143,-7.0748,-7.0753,-7.0757,0,-7.0094,-7.0155,-7.0356,-7.0385,-7.0421,-7.0511,-7.0578,-7.065,-7.069,-7.0683,-7.0728,-7.0682,-7.0795,-7.0677,-7.0832,-7.0732,-7.0773,-7.0781,-7.0789,-7.0798,-7.0668,-7.0874,-7.1215,-7.1251,-7.0806,-7.0802,-7.0799,0,-7.0318,-7.0449,-7.0587,-7.0614,-7.0652,-7.0717,-7.0735,-7.0768,-7.0816,-7.0874,-7.0904,-7.0974,-7.1013,-7.1067,-7.1041,-7.0958,-7.1201,-7.1081,-7.1199,-7.12,-7.1255,-7.1252,-7.1609,-7.128,-7.128,-7.1279,-7.1278,0,-7.0591,-7.0718,-7.0688,-7.0773,-7.0913,-7.0874,-7.1012,-7.1021,-7.1051,-7.1136,-7.1071,-7.1151,-7.1111,-7.1189,-7.1168,-7.13,-7.1318,-7.1315,-7.1309,-7.1322,-7.1323,-7.135,-7.1334,-7.1288,-7.1286,-7.1284,-7.1283,0,-7.0865,-7.085,-7.0996,-7.1019,-7.1028,-7.113,-7.115,-7.1229,-7.1223,-7.1331,-7.1354,-7.1344,-7.1432,-7.1411,-7.1506,-7.1493,-7.166,-7.1632,-7.1647,-7.1641,-7.176,-7.175,-7.2149,-7.2199,-7.1836,-7.184,-7.1843,0,-7.1041,-7.1137,-7.1172,-7.1225,-7.1248,-7.1334,-7.1382,-7.1347,-7.1401,-7.1453,-7.1526,-7.1608,-7.1673,-7.1816,-7.1817,-7.189,-7.1865,-7.1999,-7.1875,-7.1886,-7.1868,-7.1864,-7.1873,-7.2024,-7.2029,-7.2032,-7.2035,0,-7.1356,-7.1344,-7.1418,-7.149,-7.155,-7.1604,-7.1652,-7.1699,-7.1667,-7.173,-7.182,-7.187,-7.1968,-7.2051,-7.2118,-7.2135,-7.2081,-7.2074,-7.2105,-7.212,-7.2126,-7.2126,-7.1716,-7.2065,-7.2062,-7.206,-7.2058,-7.2057,-7.1588,-7.167,-7.1707,-7.1791,-7.1824,-7.187,-7.1947,-7.195,-7.2025,-7.2104,-7.2078,-7.2181,-7.2217,-7.2302,-7.2327,-7.2406,-7.2355,-7.24,-7.2412,-7.2424,-7.244,-7.2112,-7.2418,-7.2417,-7.2416,-7.2416,-7.2415,0,-7.19,-7.1921,-7.1999,-7.2069,-7.2135,-7.2078,-7.2128,-7.2187,-7.2279,-7.2318,-7.2383,-7.2487,-7.2566,-7.2574,-7.2649,-7.2711,-7.2688,-7.2732,-7.2728,-7.2733,-7.248,-7.2447,-7.2749,-7.2749,-7.2749,-7.2749,-7.2749,-7.2749,-7.2071,-7.2207,-7.22,-7.2352,-7.237,-7.2472,-7.2506,-7.2548,-7.2579,-7.2698,-7.2765,-7.2769,-7.2796,-7.2872,-7.2943,-7.2943,-7.2974,-7.3028,-7.3019,-7.2784,-7.275,-7.2719,-7.2687,-7.3035,-7.3035,-7.3265,-7.3267,-7.3269]}]]